Погода в Портофино

Италия     44°18′17″N   9°12′22″E
В апреле 2022 года жителям России запретили посещать сайт meteo.paraplan.net по решению Генеральной прокуратуры. Аудитория сайта уменьшилась в 10 раз. Владельцы сайта не видят смысла в поддержке погодного сервера в таких условиях. Сайт будет закрыт в октябре.
темп.,
°C
ветер,
м/с
пор.,
м/с
влажн.,
%
обл.,
%
осадки,
мм/ч
давл.,
гПа
погр.,
м
3 октября, пн
пн323:00+18св578113 0.0 1017357
02:00+18св46790 0.0 1016239
05:00+18ссв33725 0.0 1016126
08:00+18св43690 0.0 1017114
11:00+20юв12685 0.0 1019256
14:00+20ю327995 0.0 1018231
17:00+20юз22780 0.0 1017166
20:00+20с118084 0.0 101839
4 октября, вт
вт423:00+19ссв32760 0.0 101983
02:00+19ссв43700 0.0 1018104
05:00+19св32695 0.0 1018112
08:00+18св3268100 0.0 1019124
11:00+20юз11627 0.0 1020179
14:00+20ю1165100 0.0 1020213
17:00+20ююв116812 0.0 1020155
20:00+20с11755 0.0 102137
5 октября, ср
ср523:00+19ссв22745 0.0 102354
02:00+19св22725 0.0 102384
05:00+19св22708 0.0 102399
08:00+19св226940 0.0 1024111
11:00+20ю116422 0.0 1025174
14:00+20ю1167100 0.0 1025221
17:00+20юв1271100 0.0 1024188
20:00+19св227497 0.0 1025102
6 октября, чт
чт623:00+19св2271100 0.0 102689
02:00+19св327021 0.0 102698
05:00+19св327024 0.0 1026121
08:00+18св22692 0.0 1026120
11:00+20юз11651 0.0 1027175
14:00+20ю11693 0.0 1027234
17:00+20юз00700 0.0 1026159
20:00+19с22740 0.0 102772
7 октября, пт
пт723:00+19с22745 0.0 102774
02:00+19ссв22715 0.0 102679
05:00+19св32695 0.0 102595
08:00+19св22695 0.0 1024111
11:00+20ююз11620 0.0 1025153
14:00+20ю21650 0.0 1023194
17:00+20ююв11690 0.0 1022121
20:00+19ссв11750 0.0 102233